EW6143 Weather Reports


Display with metric or nautical units.
time (UTC)temp
F
wind
direction
speed
MPH
gust
MPH
rain 1hr
in
rain 24hr
in
rain mn
in
humidity
%
barometer
mb
20240229121511 41 182 4.0 9.0 0.00 0.00 0.00 54 1028.7
20240229120019 41 206 3.0 8.0 0.00 0.00 0.00 53 1029.0
20240229114524 42 227 2.0 10.0 0.00 0.00 0.00 53 1029.3
20240229113013 41 194 5.0 9.0 0.00 0.00 0.00 53 1028.8
20240229111514 41 177 4.0 9.0 0.00 0.00 0.00 53 1028.9
20240229110012 41 173 6.0 11.0 0.00 0.00 0.00 50 1028.9
20240229104525 41 153 3.0 8.0 0.00 0.00 0.00 50 1029.4
20240229103014 41 123 4.0 10.0 0.00 0.00 0.00 51 1029.3
20240229101511 41 164 4.0 12.0 0.00 0.00 0.00 51 1029.2
20240229100020 41 148 4.0 9.0 0.00 0.00 0.00 52 1029.2
20240229094514 41 166 3.0 9.0 0.00 0.00 0.00 51 1029.1
20240229093023 42 123 2.0 8.0 0.00 0.00 0.00 49 1029.5
20240229091513 42 157 5.0 12.0 0.00 0.00 0.00 49 1028.8
20240229090014 42 167 3.0 9.0 0.00 0.00 0.00 52 1029.4
20240229084514 42 165 2.0 6.0 0.00 0.00 0.00 52 1029.4
20240229083021 42 108 2.0 8.0 0.00 0.00 0.00 51 1029.6
20240229081514 42 90 2.0 6.0 0.00 0.00 0.00 50 1029.8
20240229080019 43 129 2.0 7.0 0.00 0.00 0.00 47 1029.7
20240229074529 42 173 4.0 10.0 0.00 0.00 0.00 47 1029.3
20240229073012 42 167 4.0 7.0 0.00 0.00 0.00 50 1028.8
20240229071513 42 178 1.0 10.0 0.00 0.00 0.00 47 1029.3
20240229070014 43 172 4.0 9.0 0.00 0.00 0.00 46 1029.6
20240229064515 43 119 3.0 9.0 0.00 0.00 0.00 46 1029.6
20240229063011 43 155 3.0 9.0 0.00 0.00 0.00 44 1029.4
20240229061518 43 165 2.0 6.0 0.00 0.00 0.00 43 1029.9
20240229060015 43 145 3.0 7.0 0.00 0.00 0.00 42 1030.1
20240229054514 43 144 3.0 8.0 0.00 0.00 0.00 41 1029.9
20240229053014 43 165 2.0 5.0 0.00 0.00 0.00 42 1030.1
20240229051513 43 0 0.0 0.0 0.00 0.00 0.00 43 1030.0
20240229050015 44 0 1.0 5.0 0.00 0.00 0.00 43 1029.8
20240229044518 44 0 0.0 7.0 0.00 0.00 0.00 41 1029.7
20240229043013 44 134 1.0 6.0 0.00 0.00 0.00 39 1029.9
20240229041514 44 105 3.0 8.0 0.00 0.00 0.00 39 1029.6
20240229040028 44 117 4.0 11.0 0.00 0.00 0.00 40 1029.1
20240229034516 44 171 4.0 8.0 0.00 0.00 0.00 39 1028.8
20240229033014 43 169 3.0 7.0 0.00 0.00 0.00 39 1029.4
20240229031513 43 167 3.0 7.0 0.00 0.00 0.00 40 1029.5
20240229030027 43 140 2.0 7.0 0.00 0.00 0.00 41 1029.2
20240229024512 43 167 3.0 7.0 0.00 0.00 0.00 40 1029.6
20240229023015 43 146 2.0 6.0 0.00 0.00 0.00 41 1029.7
20240229021511 43 113 1.0 3.0 0.00 0.00 0.00 41 1030.0
20240229020011 44 106 1.0 4.0 0.00 0.00 0.00 40 1030.3
20240229014516 44 115 2.0 9.0 0.00 0.00 0.00 39 1030.0
20240229013015 44 129 5.0 9.0 0.00 0.00 0.00 37 1029.7
20240229011516 44 103 3.0 11.0 0.00 0.00 0.00 38 1029.3
20240229010014 44 162 4.0 11.0 0.00 0.00 0.00 37 1029.2
20240229004511 44 155 3.0 10.0 0.00 0.00 0.00 38 1029.2
20240229003019 44 130 2.0 13.0 0.00 0.00 0.00 38 1029.3
20240229001513 44 170 4.0 14.0 0.00 0.00 0.00 37 1029.0
20240229000014 44 155 6.0 14.0 0.00 0.00 0.00 36 1028.9
20240228234518 44 155 5.0 14.0 0.00 0.00 0.00 37 1028.6
20240228233028 45 142 6.0 12.0 0.00 0.00 0.00 36 1028.6
20240228231520 45 134 6.0 16.0 0.00 0.00 0.00 34 1028.3
20240228230020 45 156 8.0 22.0 0.00 0.00 0.00 33 1028.5
20240228223014 46 123 8.0 15.0 0.00 0.00 0.00 32 1028.4
20240228221513 46 134 5.0 14.0 0.00 0.00 0.00 34 1028.6
20240228220013 46 148 8.0 16.0 0.00 0.00 0.00 34 1028.3
20240228214519 46 160 7.0 18.0 0.00 0.00 0.00 34 1028.0
20240228213014 46 100 7.0 20.0 0.00 0.00 0.00 33 1028.0
20240228211513 46 119 8.0 18.0 0.00 0.00 0.00 33 1028.0
20240228210024 47 133 6.0 21.0 0.00 0.00 0.00 36 1028.1
20240228204517 46 144 8.0 22.0 0.00 0.00 0.00 36 1027.9
20240228203012 46 156 7.0 16.0 0.00 0.00 0.00 36 1028.0
20240228201514 46 130 5.0 18.0 0.00 0.00 0.00 35 1028.0
20240228200034 47 148 6.0 21.0 0.00 0.00 0.00 35 1028.2
20240228194513 46 124 8.0 15.0 0.00 0.00 0.00 36 1028.2
20240228193024 45 150 8.0 17.0 0.00 0.00 0.00 38 1028.2
20240228191511 45 146 7.0 17.0 0.00 0.00 0.00 38 1028.5
20240228190012 44 126 6.0 15.0 0.00 0.00 0.00 39 1028.8
20240228184519 44 170 5.0 15.0 0.00 0.00 0.00 40 1028.8
20240228183015 43 152 8.0 19.0 0.00 0.00 0.00 42 1028.9
20240228181514 42 86 6.0 13.0 0.00 0.00 0.00 47 1028.8
20240228180014 42 160 7.0 16.0 0.00 0.00 0.00 47 1028.7
20240228174532 42 178 6.0 15.0 0.00 0.00 0.00 49 1028.7
20240228173016 42 96 6.0 17.0 0.00 0.00 0.00 49 1028.7
20240228171516 42 105 6.0 16.0 0.00 0.00 0.00 50 1028.5
20240228170015 41 117 9.0 22.0 0.00 0.00 0.00 51 1027.9
20240228164515 41 49 8.0 18.0 0.00 0.00 0.00 52 1027.7
20240228163013 41 151 6.0 15.0 0.00 0.00 0.00 53 1027.7
20240228161513 40 94 9.0 18.0 0.00 0.00 0.00 53 1027.3
20240228160013 40 91 9.0 22.0 0.00 0.00 0.00 54 1026.9
20240228154514 40 120 9.0 22.0 0.00 0.00 0.00 55 1027.0
20240228153012 40 140 9.0 18.0 0.00 0.00 0.00 55 1026.2
20240228151515 40 86 10.0 23.0 0.00 0.00 0.00 56 1025.4
20240228150016 39 153 10.0 22.0 0.00 0.00 0.00 57 1025.1
20240228144514 39 109 10.0 21.0 0.00 0.00 0.00 56 1024.9
20240228143011 39 127 12.0 25.0 0.00 0.00 0.00 56 1024.3
20240228141511 39 98 9.0 26.0 0.00 0.00 0.00 56 1024.0
20240228140015 40 90 10.0 23.0 0.00 0.00 0.00 55 1023.6
20240228134510 41 192 12.0 20.0 0.00 0.00 0.00 54 1022.6
20240228133014 42 40 9.0 19.0 0.00 0.00 0.00 54 1022.1
20240228131511 43 114 8.0 21.0 0.00 0.00 0.00 54 1021.9
20240228130012 43 151 8.0 15.0 0.00 0.00 0.00 54 1021.2
20240228124515 43 121 7.0 17.0 0.00 0.00 0.00 54 1021.3
20240228123015 44 119 4.0 14.0 0.00 0.00 0.00 54 1020.2